COSMOS 1275 DEB, 42172

Orbit data source: Space-Track

COSMOS 1275 DEB, 42172 is space debris in LEO originally from a launch on Thu, 04 Jun 1981 UTC launched from the Plesetsk Missile And Space Complex (PKMTR). Debris objects in space refer to the collection of defunct objects orbiting the Earth. Examples of debris include non-operational satellites, rocket bodies, and fragments generated from explosions, collisions, or faulty payload assembly.

Loading next visibility...
Identifier
42172, 1981-053SL
Orbit
LEO
Country
Flag of CISCIS
Related business
Manufacturer
Unknown
Mission
Spacecraft
Bus & Motor
Unknown
Mass
Unknown
Launch date (UTC)
1981-06-04 (45 years ago)
Launch vehicle
Unknown
Launch site
Plesetsk Missile And Space Complex (PKMTR)
Object type
Payload
Rocket body
Debris
Shape & HBR
Unknown shape, 0.1 m
Radar Cross Section
Small (<0.1 m²)

Expand to show TLE details & history
Last TLE update: 2 weeks ago

TLE from 2 weeks ago
0 COSMOS 1275 DEB
1 42172U 81053SL  26195.96232620  .00000560  00000-0  29956-3 0  9991
2 42172  82.9445 284.3242 0066278 290.7087  68.6993 14.10562885647263
Epoch: 2026-07-14T23:05Z
TLE epoch observation values (Epoch: 2026-07-14T23:05:44.983Z)
Latitude
-0.00004°
Longitude
5.0618°
Altitude
843.248 km
Speed
7.44 km/s
True Right ascension
18h 57m 17s
True Declination
0° 00' 00"
Sunlit
Object was in full shadow at epoch
Visualization orbit readout
Latitude
Unknown
Longitude
Unknown
Altitude
Unknown
Speed
Unknown
Apparent Right ascension
Unknown
Apparent Declination
Unknown
Sunlit
N/A
Visualization observer readout
Local Sidereal Time
01:15:09
Azimuth
Unknown
Elevation
Unknown
Doppler factor
Unknown
Orbital elements
Apogee altitude
902.482 km
Perigee altitude
806.609 km
Semi-major axis
7,232.683 km
Eccentricity
0.00663
Inclination
82.9445°
RAAN
284.3242°
Arg. of periapsis
290.7087°
True anomaly
69.40902°
Mean anomaly
68.6993°
Eccentric anomaly
69.05395°
Mean motion
3.52853 °/min
Orbital period
102.03 mins
BSTAR
0.00029956
Loading maneuver chart data...
Computing Atmospheric mass density...
Loading historical data...
Loading historical data...
Loading historical data...
Loading historical data...
Loading historical data...
Loading historical data...
Loading historical data...

Documentation

Showing up to 5 results
|